Simultaneous Nadir Overpasses (SNOs) Predictions

Prediction of SNOs between GOES-14 and NOAA-20 Satellite Orbit:

Table of predicted SNOs for the next 14.0 days since TLE Epoch: 5/8/2021
Index Date Time (GOES-14) GOES-14 Lat,Lon NOAA-20 Lat,Lon Distance(km) Time Diff (sec)
1 05/08/2021 20:29:59 -0.14,-104.32 -0.48,-105.87 176.94 80
2 05/09/2021 20:08:34 -0.15,-104.31 0.52,-101.34 338.63 80
3 05/11/2021 08:30:22 0.13,-104.19 0.65,-106.62 276.43 80
4 05/12/2021 08:14:18 0.14,-104.19 -0.35,-102.09 240.32 80
5 05/13/2021 20:36:15 -0.12,-104.33 -0.81,-107.40 350.49 80
6 05/14/2021 20:14:51 -0.13,-104.32 0.19,-102.87 164.95 80
7 05/16/2021 08:36:39 0.11,-104.17 0.98,-108.14 452.66 80
8 05/17/2021 08:20:35 0.12,-104.17 -0.03,-103.61 63.94 80
9 05/19/2021 20:23:47 -0.12,-104.31 -0.13,-104.40 9.47 80
